COSMOS 1833 (17589 NORAD) Tracking and Keplerian Element Data

This shows tracking and keplerian element data for the satellite.

Feedback or suggestion? Click here.




ElementValue
Catalog17589
NameCOSMOS 1833
Epoch Orbit95426
Epoch Day35.30842591
Epoch Year2025
RAAN83.367
Inclination70.9172
Eccentricity0.0023018
Argument of Perigee83.9686
Mean Anonmoly276.4057
Mean Motion14.13008295
Decay Rate3.5E-06
L11 17589U 87027A 25035.30842591 .00000350 00000+0 21295-3 0 9990
L22 17589 70.9172 83.3670 0023018 83.9686 276.4057 14.13008295954269



Live tracking and technical data element details for COSMOS 1833 (NORAD 17589). COSMOS 1833 can be tracked NOW for your location showing map with azimuth and elevation plus other details from your city location.







IsCatalogInMostPopularTable: catalog: 17589, numindb: 511
Update: records affected: 1



GetName: 17589 COSMOS 1833

Hit Count: updated at: Thu, 22 May 2025 02:42:51 GMT